Powrót do katalogu

STARLINK-31239

AktywnyŁącznośćVLEO
NORAD 60093·PAYLOAD·🇺🇸 United States

Wystrzelony Jun 23, 2024 z Cape Canaveral Space Force Station

Loading…

Następne Przeloty (najbliższe 24 godziny)

TLE

ŚwieżeSource: CelesTrak SupGP

Epoka: Sep 14, 2026, 22:46 UTC

1 60093C 24117C   26257.94909722  .00023817  00000+0  70354-3 0  2576
2 60093  53.1581 235.7458 0001442  96.8597 321.5571 15.34384473    19

Śledź STARLINK-31239 w czasie rzeczywistym z AllMySat

Download on the App Store